Wind_Speed
5 5 5 5 6 6 7 8 9 9 10 10 10 10 10 10 10 10 10 10 11 11 11 11 12 12 12 11 11 11 11 11 10 10 9 7 6 6 5 4 4 4 4
3 3 4 4 5 5 6 7 8 10 10 11 10 10 10 10 10 10 10 10 10 10 11 11 11 11 11 11 10 10 10 10 9 9 9 8 7 5 4 3 3 3 3
2 3 3 4 5 6 6 7 9 10 11 11 11 10 10 10 10 10 10 10 10 10 10 10 10 10 10 10 9 9 9 9 9 8 8 8 7 5 4 3 2 1 1
4 4 5 6 6 7 7 8 9 10 11 11 11 11 11 11 11 11 10 10 10 10 10 9 9 9 9 9 9 8 8 8 8 8 7 7 6 5 4 3 2 1 1
6 7 7 8 8 8 9 10 10 11 11 12 12 12 12 12 12 12 11 11 11 10 10 10 10 9 9 9 9 8 8 8 7 7 7 7 6 6 5 4 3 2 2
8 9 10 10 10 11 11 11 12 12 13 12 13 13 13 13 14 14 13 13 13 12 11 11 11 10 10 10 9 9 8 8 8 7 7 6 7 6 6 5 4 4 4
10 11 11 12 12 12 13 13 13 13 14 14 14 15 15 15 16 16 16 15 15 14 14 13 13 12 12 11 11 10 10 9 9 8 8 7 7 7 6 6 6 6 6
11 12 12 13 13 13 14 14 15 15 15 16 16 17 17 18 18 18 18 18 17 17 16 16 15 14 14 13 13 12 12 11 11 10 9 9 9 8 7 7 7 7 7
12 12 13 13 13 14 15 16 16 17 17 18 19 20 20 20 20 20 20 20 20 20 19 18 18 17 17 16 16 15 15 14 13 13 12 11 11 10 9 9 8 8 8
12 12 13 14 15 16 17 18 19 19 20 21 22 23 23 24 24 23 23 23 23 22 22 22 21 21 20 19 19 19 18 18 17 16 15 14 14 13 12 11 10 10 10
13 14 15 16 17 18 19 20 21 22 23 24 25 26 26 27 26 26 27 27 27 26 26 26 25 25 24 23 23 22 22 21 20 19 18 17 17 16 15 14 13 13 12
16 17 18 19 20 21 22 23 24 24 26 27 27 28 28 29 29 29 29 30 30 30 29 28 28 28 28 27 27 26 25 25 24 23 21 21 21 20 18 18 17 16 15
19 20 21 22 22 24 24 25 26 27 27 28 29 29 30 31 31 31 31 31 31 31 31 31 31 31 31 31 30 29 28 28 27 26 25 24 24 24 22 21 20 20 19
22 22 23 24 25 26 27 27 28 29 29 29 30 30 31 32 32 32 33 33 33 32 33 33 32 33 33 33 33 32 32 31 30 30 29 28 28 27 26 25 24 23 23
25 25 26 27 27 28 29 29 30 29 30 31 31 32 31 32 32 32 32 32 33 33 32 32 32 33 33 34 34 34 33 33 32 33 32 31 31 30 30 29 28 27 26
28 29 29 30 30 31 31 30 30 30 30 30 31 32 32 32 32 31 30 30 30 31 31 31 31 31 31 31 32 32 32 32 31 32 34 32 32 32 32 32 31 31 30
32 32 32 33 33 32 32 32 32 32 32 30 31 31 31 31 31 30 29 29 29 28 28 29 29 29 28 28 27 28 30 31 31 31 33 34 33 33 34 34 33 33 32
36 35 35 35 35 34 34 34 33 33 32 31 30 30 30 29 29 29 28 28 28 27 27 27 27 27 27 26 25 25 27 28 30 30 30 31 32 32 33 33 33 33 33
37 36 35 36 36 36 36 35 35 34 32 31 31 30 29 29 29 28 27 26 26 26 26 26 25 25 25 25 24 24 25 26 27 28 29 29 29 30 30 31 32 33 32
37 34 35 36 37 38 37 37 36 35 33 31 30 29 28 28 28 27 26 25 25 25 24 24 24 24 24 24 24 23 24 24 24 24 26 27 26 27 27 28 29 31 31
37 37 36 37 38 38 38 38 38 36 33 32 29 28 28 27 27 26 25 25 24 24 23 23 23 23 23 23 23 23 23 24 24 24 24 25 26 26 26 26 27 28 29
36 36 37 38 39 39 39 39 38 36 34 32 30 28 27 26 26 26 25 25 25 24 24 24 24 23 23 24 24 24 24 24 25 25 25 24 25 25 25 26 26 26 27
35 35 38 39 39 40 41 39 38 35 34 31 29 28 27 26 26 26 26 26 25 25 25 25 25 25 25 25 26 25 25 25 25 25 25 25 25 25 25 25 25 25 27
35 36 38 39 40 40 39 38 37 35 32 29 29 29 28 27 26 27 27 27 27 27 27 27 27 27 26 26 27 27 27 26 26 24 25 25 26 26 26 26 26 25 26
35 36 37 37 38 39 38 39 37 34 32 31 30 30 30 29 29 28 29 29 29 29 29 29 29 29 28 28 28 28 28 27 28 26 25 26 26 26 27 27 27 26 26
34 35 36 36 37 38 37 38 38 36 34 33 33 33 32 32 32 31 31 31 31 32 32 32 31 31 31 30 30 29 29 29 29 29 27 26 27 27 28 28 29 29 28
Wind_Direction
73 68 59 50 43 36 26 17 12 9 8 8 8 10 13 15 15 14 15 16 17 18 18 19 20 22 22 22 23 25 27 28 29 29 29 32 39 49 60 72 80 92 97
49 45 33 23 17 12 6 1 358 357 356 355 356 358 1 3 5 4 5 5 7 9 10 10 12 14 16 15 14 16 18 18 19 21 23 23 26 34 45 60 73 92 104
348 354 350 345 346 348 346 345 345 345 345 345 345 346 348 350 352 354 355 356 356 358 1 2 3 4 7 7 5 5 6 7 9 10 13 15 15 17 24 35 51 92 121
304 314 318 319 321 326 329 331 332 333 335 336 336 336 336 338 341 343 345 346 346 347 348 349 350 352 353 355 355 353 352 353 357 359 1 1 3 3 3 5 5 325 225
289 297 302 305 308 312 317 320 322 324 325 326 328 328 328 329 330 332 333 333 333 334 335 336 336 337 339 341 341 340 339 338 340 344 348 349 348 349 347 343 338 321 269
284 291 294 298 303 308 312 315 318 319 321 321 321 321 322 322 323 323 324 323 323 323 322 323 324 323 324 326 327 326 324 323 323 326 330 334 334 337 334 327 321 317 290
286 292 295 299 303 307 311 314 316 317 317 317 316 316 316 316 317 317 317 316 315 315 313 312 312 312 312 313 313 313 313 312 310 310 312 315 316 321 322 317 307 303 301
289 294 299 303 306 309 311 313 314 314 314 313 313 312 312 312 312 311 311 310 308 307 306 305 304 303 302 303 303 303 304 303 301 298 299 298 299 301 303 304 301 294 293
294 299 302 305 307 309 311 312 312 312 312 311 310 310 309 308 308 307 305 304 303 301 300 299 297 297 295 294 294 294 294 294 294 292 291 290 289 290 290 292 291 290 284
299 303 306 308 309 310 310 310 310 309 309 308 308 306 305 304 303 302 300 298 297 296 295 293 291 290 289 287 287 287 286 287 287 287 286 284 282 283 282 283 282 282 279
300 303 305 307 308 307 308 309 308 306 306 305 303 302 301 300 299 298 297 295 293 293 291 288 287 285 283 282 282 281 280 282 283 283 281 280 279 279 277 276 275 276 274
301 304 305 306 307 307 307 307 306 304 303 301 300 299 298 296 295 293 293 292 291 290 288 286 284 282 280 278 276 275 275 276 277 277 276 276 276 275 275 272 270 270 271
300 303 305 307 308 308 308 307 305 303 301 299 298 297 296 294 293 292 291 290 289 289 287 286 284 281 279 275 272 271 271 272 272 271 271 272 272 271 270 270 269 267 266
298 302 304 307 309 309 310 309 307 304 301 298 297 295 295 293 291 291 291 289 287 287 286 285 283 282 280 276 274 272 269 269 269 268 267 268 269 269 268 267 267 266 264
298 301 303 305 307 308 309 309 309 306 303 301 299 296 294 293 292 291 291 290 289 288 287 285 285 284 282 280 278 277 274 270 269 269 266 264 264 266 268 267 265 263 262
298 300 302 304 306 307 308 308 308 307 304 302 299 296 293 293 292 291 291 290 289 288 287 287 286 285 287 287 282 277 277 274 273 272 267 265 264 265 266 265 264 262 260
296 298 300 301 304 305 306 306 306 305 303 301 298 296 294 291 291 289 289 288 287 287 287 287 287 288 288 289 287 284 283 279 276 276 271 267 267 265 265 265 263 261 260
293 295 297 299 301 302 303 304 304 303 302 299 297 295 294 291 289 289 289 288 287 287 287 288 289 290 290 290 291 290 288 285 281 279 275 273 272 269 266 264 263 261 259
289 290 292 296 298 299 300 301 301 301 300 298 296 294 292 291 290 288 288 288 288 288 289 290 291 291 292 293 295 296 294 292 288 284 280 278 275 275 271 264 262 259 258
286 286 291 293 295 296 297 299 300 300 298 296 294 291 290 288 287 287 286 287 287 288 290 292 293 293 294 294 296 297 298 298 296 293 288 283 280 276 272 267 264 260 259
284 286 287 288 291 293 294 296 297 296 295 293 292 290 288 286 285 285 285 285 286 287 289 291 293 295 295 295 297 299 300 299 296 294 293 289 284 280 277 272 268 264 260
279 282 284 286 287 289 291 292 294 293 292 291 290 289 286 284 284 283 283 285 286 286 287 290 292 294 296 297 298 300 301 299 297 296 292 288 285 281 275 271 268 265 262
277 280 283 284 285 287 289 290 291 292 292 289 287 287 286 284 283 282 282 283 284 285 286 289 290 292 294 296 298 300 301 300 299 298 293 288 283 281 277 271 268 266 263
278 281 282 282 284 285 287 289 289 290 290 289 289 288 286 284 282 282 282 282 282 283 285 287 288 290 291 293 295 297 299 300 300 298 294 288 282 278 275 271 267 267 264
278 280 281 281 283 285 287 290 290 291 290 290 288 287 285 284 282 281 281 281 280 281 283 284 285 286 288 290 292 294 297 299 299 299 294 288 284 278 274 271 266 265 264
280 282 282 284 285 286 287 290 288 288 288 288 286 285 284 283 281 280 279 279 278 279 280 281 282 283 285 287 289 291 294 296 298 297 294 288 284 279 274 271 267 265 264
Height
5918 5917 5917 5917 5916 5916 5916 5915 5915 5914 5913 5912 5911 5910 5909 5907 5906 5905 5903 5902 5901 5900 5899 5898 5897 5895 5894 5893 5892 5892 5891 5890 5889 5888 5888 5887 5887 5887 5886 5887 5887 5887 5888
5919 5918 5918 5918 5917 5917 5916 5916 5915 5915 5914 5913 5912 5911 5910 5908 5907 5906 5905 5903 5902 5901 5900 5899 5898 5897 5896 5894 5893 5893 5892 5891 5890 5890 5889 5889 5888 5888 5888 5888 5888 5888 5889
5919 5919 5918 5918 5918 5917 5917 5916 5915 5915 5914 5913 5912 5911 5910 5909 5908 5906 5905 5904 5903 5902 5901 5899 5898 5897 5896 5895 5894 5893 5893 5892 5891 5891 5890 5889 5889 5889 5889 5889 5889 5889 5890
5918 5918 5918 5918 5917 5917 5916 5916 5915 5914 5914 5913 5912 5911 5910 5909 5908 5907 5905 5904 5903 5902 5901 5900 5899 5898 5897 5896 5895 5894 5893 5892 5892 5891 5891 5890 5890 5890 5889 5889 5889 5890 5890
5918 5918 5917 5917 5917 5916 5915 5915 5914 5914 5913 5912 5911 5910 5909 5908 5907 5906 5905 5904 5903 5901 5900 5900 5899 5898 5897 5896 5895 5894 5893 5893 5892 5892 5891 5891 5890 5890 5890 5890 5890 5890 5890
5917 5917 5916 5916 5916 5915 5914 5914 5913 5913 5912 5911 5910 5909 5908 5907 5906 5905 5904 5903 5902 5901 5900 5899 5898 5897 5896 5895 5895 5894 5893 5892 5892 5891 5891 5891 5890 5890 5890 5890 5890 5890 5890
5916 5915 5915 5915 5914 5914 5913 5913 5912 5911 5911 5910 5909 5908 5907 5906 5905 5904 5902 5901 5900 5899 5898 5897 5897 5896 5895 5894 5894 5893 5892 5892 5891 5891 5891 5890 5890 5890 5889 5889 5889 5889 5889
5915 5914 5914 5913 5913 5913 5912 5911 5911 5910 5909 5908 5907 5906 5905 5904 5903 5901 5900 5899 5898 5897 5896 5895 5895 5894 5893 5893 5892 5891 5891 5890 5890 5890 5890 5890 5889 5889 5889 5889 5889 5889 5889
5913 5913 5912 5912 5911 5911 5910 5909 5909 5908 5907 5906 5905 5904 5903 5901 5900 5899 5897 5896 5895 5894 5893 5892 5892 5891 5891 5890 5889 5889 5888 5888 5888 5888 5888 5888 5888 5887 5888 5888 5888 5888 5888
5911 5911 5910 5910 5909 5909 5908 5907 5906 5906 5905 5903 5902 5901 5899 5898 5897 5895 5894 5892 5891 5890 5890 5889 5888 5888 5887 5887 5886 5886 5885 5885 5885 5885 5885 5885 5885 5885 5886 5886 5886 5886 5887
5908 5908 5908 5908 5907 5906 5905 5904 5903 5902 5901 5900 5898 5897 5895 5894 5892 5891 5889 5888 5887 5886 5885 5884 5883 5883 5883 5882 5882 5881 5881 5881 5881 5881 5882 5882 5882 5883 5883 5883 5884 5884 5884
5905 5905 5905 5904 5904 5903 5902 5901 5899 5898 5896 5895 5893 5892 5890 5888 5887 5886 5885 5883 5881 5880 5879 5878 5878 5877 5877 5877 5876 5876 5876 5876 5876 5877 5878 5878 5878 5879 5879 5880 5881 5881 5882
5902 5901 5901 5900 5899 5898 5897 5896 5894 5893 5891 5890 5888 5886 5885 5883 5881 5880 5879 5877 5876 5874 5873 5872 5871 5870 5870 5869 5869 5870 5870 5870 5871 5871 5873 5874 5874 5874 5875 5876 5877 5877 5878
5898 5897 5896 5896 5895 5893 5892 5890 5889 5887 5885 5884 5882 5880 5878 5876 5875 5873 5872 5870 5869 5868 5867 5865 5864 5863 5862 5861 5860 5861 5862 5863 5864 5865 5866 5867 5868 5868 5869 5870 5871 5872 5874
5894 5893 5892 5891 5890 5888 5887 5885 5883 5881 5879 5877 5875 5873 5871 5870 5868 5866 5865 5863 5862 5860 5859 5858 5857 5856 5855 5854 5853 5853 5854 5855 5856 5857 5858 5859 5861 5862 5863 5864 5865 5866 5868
5888 5888 5886 5886 5885 5883 5881 5880 5878 5876 5874 5871 5869 5867 5865 5863 5862 5860 5858 5857 5855 5853 5852 5851 5850 5849 5847 5847 5846 5846 5847 5846 5848 5849 5849 5850 5852 5854 5855 5856 5858 5859 5861
5882 5882 5880 5879 5879 5877 5876 5874 5872 5870 5868 5865 5863 5861 5859 5857 5855 5852 5851 5850 5849 5847 5846 5844 5843 5842 5841 5840 5839 5839 5839 5839 5839 5840 5841 5841 5843 5845 5847 5848 5849 5851 5853
5876 5875 5874 5873 5872 5871 5870 5868 5866 5864 5862 5859 5857 5855 5853 5850 5848 5847 5845 5844 5843 5842 5840 5839 5838 5836 5835 5834 5833 5833 5832 5832 5833 5833 5833 5833 5835 5836 5837 5838 5840 5842 5845
5868 5867 5867 5866 5866 5865 5863 5861 5859 5857 5855 5853 5851 5849 5846 5844 5843 5841 5840 5839 5838 5836 5835 5833 5832 5831 5830 5828 5827 5827 5826 5826 5826 5826 5826 5826 5827 5828 5828 5830 5832 5834 5836
5860 5858 5859 5860 5859 5858 5856 5854 5852 5850 5848 5846 5844 5842 5840 5838 5837 5835 5834 5833 5831 5830 5829 5828 5827 5825 5824 5823 5822 5822 5821 5820 5819 5820 5819 5820 5820 5820 5821 5822 5824 5826 5828
5855 5854 5854 5854 5853 5851 5849 5847 5845 5843 5841 5839 5837 5836 5834 5832 5831 5829 5828 5827 5826 5825 5824 5823 5821 5820 5819 5818 5817 5816 5816 5815 5814 5813 5813 5813 5813 5813 5814 5816 5817 5818 5819
5850 5849 5848 5847 5845 5844 5842 5840 5838 5835 5834 5832 5830 5829 5827 5826 5825 5823 5822 5821 5820 5819 5818 5817 5816 5815 5814 5812 5811 5810 5810 5810 5807 5807 5807 5806 5806 5806 5808 5809 5810 5811 5812
5842 5842 5841 5840 5837 5836 5834 5832 5830 5828 5826 5825 5823 5822 5821 5820 5818 5817 5816 5815 5814 5813 5812 5811 5810 5809 5808 5806 5805 5804 5804 5803 5802 5801 5800 5800 5800 5800 5801 5801 5803 5804 5805
5835 5835 5834 5832 5830 5829 5826 5823 5822 5821 5819 5817 5816 5814 5814 5813 5812 5811 5810 5809 5808 5807 5806 5805 5804 5802 5802 5801 5799 5798 5797 5796 5795 5795 5794 5793 5793 5793 5793 5794 5795 5796 5797
5829 5827 5825 5823 5823 5821 5818 5816 5814 5812 5811 5810 5809 5807 5806 5805 5805 5804 5803 5802 5801 5800 5799 5798 5797 5796 5795 5794 5793 5792 5790 5789 5788 5787 5788 5786 5786 5786 5786 5786 5787 5788 5789
5821 5820 5817 5815 5814 5812 5810 5808 5806 5805 5803 5802 5801 5799 5798 5797 5797 5796 5795 5794 5793 5792 5791 5791 5790 5789 5788 5787 5786 5785 5784 5782 5781 5780 5780 5779 5779 5779 5778 5779 5780 5781 5782